STARLINK-4022 (52629 NORAD) Tracking and Keplerian Element Data

This shows tracking and keplerian element data for the satellite.

Feedback or suggestion? Click here.




ElementValue
Catalog52629
NameSTARLINK-4022
Epoch Orbit130
Epoch Day192.91667824
Epoch Year2022
RAAN153.0881
Inclination53.2176
Eccentricity0.000111
Argument of Perigee78.0989
Mean Anonmoly120.9545
Mean Motion15.49933152
Decay Rate-0.00077398
L11 52629U 22052AH 22192.91667824 -.00077398 00000+0 -13669-2 0 9996
L22 52629 53.2176 153.0881 0001110 78.0989 120.9545 15.49933152 1302

Live tracking and technical data element details for STARLINK-4022 (NORAD 52629). STARLINK-4022 can be tracked NOW for your location showing map with azimuth and elevation plus other details from your city location.

Track the satellite on the map from your city or location and see movement details for azimuth, elevation, latitude, longitude, range, height, and movement on the map or in text.







IsCatalogInMostPopularTable: catalog: 52629, numindb: 7
Update: records affected: 1



GetName: 52629 STARLINK-4022

Hit Count: updated at: Sun, 14 Aug 2022 01:39:28 GMT